Regional Weather Roundup
Issued by NWS Sterling, VA

Home | Current Version | Previous Version | Text Only | Print | Product List | Glossary On
Versions: 1 2 3 4 5 6 7 8 9 10 11 12 13 14 15 16 17 18 19 20 21 22 23 24 25 26 27 28 29 30 31 32 33 34 35 36 37 38 39 40 41 42 43 44 45 46 47 48 49 50
000
ASUS41 KLWX 261611
RWRLWX

REGIONAL WEATHER ROUNDUP
NATIONAL WEATHER SERVICE BALTIMORE MD/WASHINGTON DC
1100 AM EST SUN FEB 26 2017

Note: "FAIR" indicates few or no clouds below 12,000 feet
with no significant weather and/or obstructions to visibility.
 TC=TEMPERATURE CELSIUS

 * =Non NWS site. Station does not report precipitation (e.g. rain,
    snow, etc.), thunder, or fog.

DCZ001-MDZ009-015-VAZ040>042-051-053>054-261700-
WASHINGTON METRO

CITY           SKY/WX    TMP DP  RH WIND       PRES   REMARKS
WASHINGTON NAT MOSUNNY   43  19  38 NW15      30.16S
DULLES         MOSUNNY   40  16  37 W16G25    30.14S
ANDREWS AFB    SUNNY     41  16  36 NW14G23   30.13S
FT BELVOIR     MOSUNNY   42  15  34 W10G21    30.15S
QUANTICO       SUNNY     43  17  35 NW8G21    30.17S
COLLEGE PARK*  MOSUNNY   39  18  41 W15       30.15S
LEESBURG*      PTSUNNY   41  23  48 MISG      30.15S
MANASSAS*      SUNNY     42  18  37 W14       30.16S
GAITHERSBURG*  PTSUNNY   37  16  41 NW9G20    30.17R

$$

MDZ006>007-011-014-261700-
BALTIMORE METRO

CITY           SKY/WX    TMP DP  RH WIND       PRES   REMARKS
BWI AIRPORT    MOSUNNY   40  18  41 W13G22    30.13S
MD SCIENCE CTR   N/A     40  14  34 MISG      30.15S
MARTIN STATE   PTSUNNY   39  21  48 NW16G24   30.15R
ANNAPOLIS      SUNNY     40  22  48 NW20G25   30.13S
FORT MEADE*    MOSUNNY   41  18  38 NW14G25   30.16S

$$

MDZ012-015-019>023-261700-
MARYLAND EASTERN SHORE

CITY           SKY/WX    TMP DP  RH WIND       PRES   REMARKS
OCEAN CITY     MOSUNNY   44  25  47 NW13G21   30.11R
SALISBURY      SUNNY     41  21  44 NW13G23   30.13R
BAY BRIDGE AP* SUNNY     41  19  42 NW12G24   30.15R
CAMBRIDGE*     SUNNY     41  19  42 NW15      30.15R
EASTON*        MOSUNNY   43  18  36 NW17G25   30.17R

$$

MDZ017>025-261700-
SOUTHERN MARYLAND

CITY           SKY/WX    TMP DP  RH WIND       PRES   REMARKS
PATUXENT RIVER MOSUNNY   41  21  44 N18       30.15R
ST INIGOES     SUNNY     43  19  38 NW9G17    30.14R
LEONARDTOWN*   SUNNY     41  18  38 W9G16     30.16S

$$

MDZ003>005-261700-
NORTH CENTRAL MARYLAND

CITY           SKY/WX    TMP DP  RH WIND       PRES   REMARKS
FREDERICK*     PTSUNNY   37  18  44 NW12      30.18R
HAGERSTOWN APT CLOUDY    37  16  42 W21G30    30.12R WCI  26
WESTMINSTER*   PTSUNNY   36  18  48 W15G21    30.10S WCI  26

$$

MDZ501>502-261700-
WESTERN MARYLAND

CITY           SKY/WX    TMP DP  RH WIND       PRES   REMARKS
OAKLAND*       CLOUDY    25  14  63 W12G23    30.02R WCI  14
CUMBERLAND*    MOSUNNY   39  18  41 SW16      30.17S

$$

VAZ025>031-261700-
SHENANDOAH VALLEY

CITY           SKY/WX    TMP DP  RH WIND       PRES   REMARKS
WINCHESTER*    MOSUNNY   36  18  48 NW9G16    30.13R WCI  29
FRONT ROYAL*   MOSUNNY   37  18  44 CALM      30.11S
LURAY*         MOSUNNY   41  21  45 SW6       30.11S HAZE
NEW MARKET*    SUNNY     39  15  36 S8        30.11S
STAUNTON*      SUNNY     38  13  36 SW6       30.13R
WAYNESBORO*    SUNNY     37  11  34 W6        30.10S

$$

WVZ021-048>050-054>055-261700-
EASTERN WEST VIRGINIA PANHANDLE

CITY           SKY/WX    TMP DP  RH WIND       PRES   REMARKS
MARTINSBURG    PTSUNNY   40  15  36 NW16G26   30.13R
PETERSBURG*    SUNNY     40  17  39 NW5       30.12F

$$

VAZ036>039-050-261700-
CENTRAL FOOTHILLS

CITY           SKY/WX    TMP DP  RH WIND       PRES   REMARKS
CHARLOTTESVILL SUNNY     43  15  32 VRB5      30.14R
CULPEPER*      SUNNY     43  19  38 NW5       30.16R
ORANGE*        MOSUNNY   41  18  38 CALM      30.16R
GORDONSVILLE*  SUNNY     41  19  41 SW8       30.14R
WARRENTON*     SUNNY     44  12  27 NW8       30.14S

$$

VAZ055>057-261700-
NORTH AND CENTRAL PIEDMONT

CITY           SKY/WX    TMP DP  RH WIND       PRES   REMARKS
FREDERICKSBRG* SUNNY     44  21  40 W6        30.16S
STAFFORD*      SUNNY     41  18  40 NW8       30.20S

$$

NCZ024-NYZ072-PAZ021-071-VAZ022-071-261700-
OTHER REGIONAL OBSERVATIONS

CITY           SKY/WX    TMP DP  RH WIND       PRES   REMARKS
NEW YORK CITY  SUNNY     38  15  39 VRB7G24   30.02R
PHILADELPHIA   PTSUNNY   38  16  40 W20G32    30.10R WCI  28
PITTSBURGH     FLURRIES  30  20  66 W16       30.14R WCI  19
ROANOKE        SUNNY     42  12  29 NW8       30.16S
RICHMOND       SUNNY     45  21  38 W9        30.16R
RALEIGH        SUNNY     48  15  26 VRB7      30.20S

$$

ANZ530>537-261700-
MARINE OBSERVATIONS

STATION/POSITION TIME  TEMP    WIND        PRES
                       AIR SEA DIR/SP/G
                 (UTC) (F)     (DEG/KT/KT) (MB)
THOMAS PT LIGHT  1600   37 44  300/ 14/ 18   N/A
BALT KEY BRIDGE  1548   37     300/ 18/ 21 1020.3R
COVE POINT       1548   37     350/ 17/ 21 1021.5R
LEWISETTA        1548   40 49  340/ 10/ 15 1021.0R
SOLOMONS ISLAND  1548   39 44  330/ 12/ 18   N/A
PINEY POINT      1548          330/ 18/ 21   N/A

$$




USA.gov is the U.S. government's official web portal to all federal, state and local government web resources and services.